Total_Precipitation_Accumulation
0.02 0.06 0.12 0.29 0.88 1.12 0.84 0.50 0.41 0.33 0.33 0.29 0.30 0.30 0.36 0.52 0.77 1.11 0.52 0.17 0.06 0.04 0.06 0.15 0.26 0.24 0.19 0.19 0.19 0.22 0.22 0.23 0.21 0.21 0.23 0.23 0.21 0.17 0.18 0.20 0.24 0.30 0.32 0.31 0.38 0.39 0.37 0.39 0.45
0.05 0.07 0.15 0.46 0.90 0.85 0.60 0.44 0.36 0.26 0.29 0.34 0.47 0.47 0.38 0.46 0.45 0.38 0.30 0.21 0.08 0.05 0.05 0.07 0.16 0.19 0.18 0.17 0.18 0.21 0.20 0.18 0.17 0.17 0.19 0.20 0.20 0.18 0.18 0.21 0.26 0.30 0.30 0.31 0.38 0.36 0.36 0.35 0.40
0.07 0.10 0.20 0.52 0.61 0.44 0.34 0.23 0.24 0.28 0.37 0.46 0.52 0.55 0.56 0.53 0.41 0.36 0.30 0.19 0.14 0.10 0.07 0.09 0.13 0.15 0.16 0.18 0.18 0.20 0.20 0.17 0.16 0.16 0.18 0.19 0.19 0.19 0.21 0.24 0.27 0.33 0.35 0.33 0.33 0.32 0.36 0.37 0.40
0.07 0.14 0.28 0.39 0.26 0.14 0.13 0.15 0.23 0.34 0.54 0.77 0.77 0.72 0.65 0.45 0.34 0.30 0.33 0.24 0.20 0.13 0.08 0.11 0.15 0.14 0.15 0.16 0.17 0.19 0.18 0.16 0.17 0.17 0.18 0.19 0.19 0.21 0.22 0.23 0.29 0.36 0.40 0.38 0.37 0.37 0.38 0.37 0.39
0.06 0.19 0.35 0.31 0.15 0.10 0.11 0.16 0.27 0.41 0.59 0.79 0.83 0.87 0.84 0.55 0.36 0.34 0.31 0.30 0.24 0.18 0.11 0.11 0.19 0.18 0.17 0.18 0.20 0.20 0.18 0.17 0.16 0.17 0.19 0.22 0.22 0.23 0.24 0.26 0.32 0.36 0.38 0.37 0.37 0.38 0.37 0.37 0.39
0.05 0.18 0.24 0.20 0.11 0.08 0.12 0.18 0.28 0.42 0.60 0.78 1.03 1.10 0.98 0.72 0.62 0.54 0.42 0.50 0.37 0.27 0.18 0.20 0.26 0.27 0.24 0.24 0.26 0.26 0.21 0.20 0.20 0.20 0.23 0.24 0.24 0.26 0.28 0.32 0.35 0.37 0.39 0.37 0.36 0.36 0.34 0.35 0.43
0.02 0.09 0.13 0.12 0.09 0.08 0.11 0.17 0.28 0.45 0.60 0.86 1.14 1.26 1.05 0.85 0.75 0.68 0.63 0.69 0.70 0.53 0.40 0.35 0.33 0.32 0.30 0.33 0.34 0.31 0.27 0.25 0.26 0.27 0.26 0.25 0.25 0.27 0.31 0.39 0.40 0.40 0.42 0.39 0.37 0.36 0.38 0.41 0.49
0.02 0.04 0.08 0.07 0.05 0.07 0.12 0.17 0.31 0.53 0.71 0.94 1.13 1.26 1.32 0.99 0.81 0.89 1.08 1.22 1.30 1.14 0.90 0.66 0.46 0.46 0.38 0.36 0.38 0.37 0.31 0.30 0.30 0.30 0.28 0.31 0.36 0.41 0.48 0.51 0.47 0.50 0.53 0.54 0.55 0.53 0.53 0.61 0.68
0.02 0.04 0.06 0.03 0.04 0.11 0.15 0.19 0.28 0.39 0.60 0.83 1.02 1.08 0.99 0.93 1.07 1.29 1.64 1.67 1.49 1.49 1.30 1.16 0.92 0.66 0.63 0.55 0.47 0.54 0.51 0.50 0.53 0.60 0.58 0.63 0.82 0.85 0.93 0.80 0.75 0.79 0.86 0.91 0.97 0.98 0.98 0.96 0.88
0.01 0.02 0.03 0.02 0.02 0.05 0.12 0.18 0.27 0.42 0.83 1.40 1.39 1.05 0.83 1.02 1.28 1.47 1.75 1.97 1.56 1.51 1.34 1.34 1.27 0.96 0.83 0.76 0.91 1.12 1.02 1.04 1.05 1.22 1.10 1.30 1.41 1.25 0.90 0.95 1.07 1.17 1.42 1.52 1.61 1.67 1.60 1.45 1.28
0.00 0.00 0.01 0.01 0.01 0.01 0.05 0.12 0.22 0.46 0.92 1.61 1.78 1.32 1.13 1.23 1.59 1.61 1.84 2.01 1.92 1.74 1.61 1.34 1.44 1.25 1.16 1.23 1.29 1.40 1.48 1.48 1.46 1.52 1.53 1.72 1.61 1.37 1.21 1.40 1.66 1.80 1.96 2.12 2.26 2.28 2.00 1.99 2.10
0.00 0.00 0.00 0.01 0.01 0.02 0.09 0.17 0.27 0.35 0.77 1.11 1.09 0.99 1.15 1.37 1.69 1.88 1.93 2.14 2.17 2.01 1.91 1.77 1.77 1.72 1.65 1.63 1.54 1.41 1.25 1.28 1.41 1.55 1.60 1.77 1.80 1.83 1.79 1.86 1.93 2.07 2.37 2.70 2.69 2.74 2.67 2.73 2.60
0.00 0.00 0.00 0.02 0.03 0.04 0.10 0.14 0.26 0.41 0.53 0.64 0.62 0.80 1.23 1.52 1.90 2.21 2.54 2.73 2.79 2.71 2.55 2.52 2.60 2.35 2.09 1.92 1.59 1.30 1.17 1.06 1.16 1.28 1.39 1.45 1.68 1.89 1.90 1.74 1.77 1.77 1.99 2.38 2.79 2.84 3.07 3.14 2.86
0.00 0.00 0.01 0.03 0.04 0.05 0.09 0.13 0.28 0.49 0.50 0.62 0.77 1.00 1.38 1.83 2.22 2.46 3.19 3.55 3.77 3.70 3.51 3.30 3.31 2.80 2.43 2.11 1.70 1.45 1.23 1.18 1.11 1.05 1.11 1.34 1.49 1.68 1.64 1.62 1.74 1.80 1.78 1.93 2.33 2.58 2.87 2.90 2.60
0.01 0.04 0.06 0.07 0.05 0.06 0.10 0.25 0.43 0.55 0.75 0.78 0.96 1.18 1.51 2.09 2.55 3.00 3.53 4.25 4.67 4.82 4.41 3.78 3.49 3.13 2.80 2.48 1.97 1.55 1.34 1.13 1.10 1.03 1.02 1.11 1.24 1.38 1.37 1.44 1.42 1.48 1.49 1.52 1.68 1.92 2.15 2.16 2.09
0.03 0.10 0.20 0.12 0.07 0.08 0.13 0.49 0.67 0.58 0.87 1.21 1.16 1.43 1.82 2.33 2.79 3.44 4.13 4.95 5.47 5.62 4.99 4.21 3.52 3.50 3.29 2.91 2.25 1.72 1.40 1.20 1.04 0.96 0.88 0.86 0.91 0.89 0.93 0.98 0.98 0.96 0.91 0.99 1.20 1.32 1.49 1.72 1.89
0.03 0.08 0.16 0.18 0.12 0.10 0.19 0.61 0.78 0.59 0.74 1.04 1.28 1.52 1.94 2.30 2.61 3.23 3.89 4.71 5.31 5.81 5.57 4.87 4.59 4.33 3.66 2.88 2.21 1.74 1.44 1.27 1.08 0.99 0.87 0.82 0.73 0.69 0.74 0.79 0.86 0.67 0.64 0.69 0.71 0.95 1.10 1.33 1.47
0.02 0.04 0.10 0.22 0.17 0.18 0.26 0.47 0.74 0.78 0.95 1.15 1.30 1.44 1.72 1.88 2.13 2.64 3.22 3.70 4.29 4.78 4.67 4.53 4.54 4.04 3.41 2.73 2.20 1.81 1.51 1.27 1.08 0.97 0.90 0.84 0.76 0.69 0.74 0.67 0.64 0.54 0.58 0.67 0.77 0.94 0.94 0.97 1.09
0.02 0.04 0.08 0.15 0.16 0.23 0.36 0.50 0.71 0.87 1.10 1.26 1.29 1.25 1.31 1.47 1.75 2.03 2.43 2.85 3.05 3.22 3.31 3.57 3.74 3.42 2.88 2.41 1.86 1.56 1.42 1.23 1.09 0.97 0.82 0.81 0.73 0.74 0.76 0.65 0.69 0.60 0.60 0.61 0.62 0.74 0.78 0.75 0.75
0.03 0.06 0.11 0.14 0.14 0.19 0.35 0.63 0.81 0.89 0.91 0.99 1.10 1.05 1.07 1.23 1.34 1.46 1.67 2.00 2.08 2.30 2.61 2.96 3.17 2.98 2.42 2.13 1.84 1.63 1.48 1.32 1.22 1.11 0.92 0.76 0.71 0.69 0.62 0.71 0.59 0.58 0.64 0.63 0.65 0.73 0.75 0.66 0.66
0.04 0.05 0.06 0.10 0.11 0.19 0.35 0.87 0.99 0.87 0.78 0.69 0.80 0.85 0.83 0.90 1.00 1.00 1.09 1.26 1.56 2.03 2.17 2.20 2.43 2.59 2.29 2.12 1.99 1.81 1.65 1.42 1.31 1.18 0.98 0.75 0.67 0.65 0.63 0.60 0.58 0.67 0.54 0.66 0.76 0.75 0.74 0.73 0.65
0.04 0.03 0.02 0.02 0.07 0.30 0.42 0.87 0.99 0.87 0.87 0.68 0.63 0.62 0.54 0.53 0.68 0.82 0.83 0.89 1.09 1.41 1.68 1.92 2.14 2.27 2.14 1.99 1.77 1.56 1.33 1.14 1.00 0.97 0.96 0.90 0.79 0.68 0.64 0.56 0.61 0.69 0.60 0.78 0.61 0.63 0.73 0.74 0.64
0.01 0.01 0.01 0.03 0.10 0.27 0.40 0.73 0.95 0.79 0.92 0.67 0.42 0.31 0.26 0.27 0.37 0.54 0.65 0.74 0.77 0.97 1.34 1.74 2.05 2.24 2.06 1.75 1.59 1.54 1.39 1.25 1.14 1.03 1.12 1.01 0.93 0.81 0.71 0.66 0.67 0.62 0.58 0.66 0.68 0.81 0.73 0.71 0.66
0.01 0.02 0.08 0.17 0.29 0.61 0.61 0.59 0.89 0.68 0.47 0.32 0.22 0.17 0.19 0.20 0.25 0.34 0.41 0.50 0.64 0.77 1.00 1.25 1.55 1.80 1.79 1.61 1.51 1.47 1.44 1.38 1.25 1.04 1.00 0.94 0.90 0.87 0.82 0.83 0.80 0.71 0.62 0.63 0.64 0.71 0.74 0.79 0.85
0.02 0.03 0.16 0.37 0.63 0.83 0.49 0.62 0.97 0.56 0.36 0.22 0.17 0.16 0.17 0.15 0.21 0.30 0.37 0.34 0.45 0.55 0.65 0.78 1.07 1.28 1.38 1.42 1.41 1.34 1.42 1.43 1.30 1.14 1.01 0.95 0.82 0.77 0.77 0.78 0.84 0.79 0.76 0.74 0.72 0.70 0.70 0.77 0.83
0.02 0.02 0.06 0.12 0.25 0.41 0.48 1.08 0.92 0.39 0.24 0.20 0.16 0.17 0.16 0.15 0.16 0.25 0.33 0.31 0.32 0.38 0.50 0.63 0.83 0.99 1.08 1.13 1.22 1.22 1.21 1.16 1.19 1.24 1.11 0.98 0.90 0.83 0.79 0.79 0.75 0.74 0.77 0.76 0.87 0.72 0.67 0.72 0.71
0.02 0.02 0.03 0.04 0.06 0.25 0.58 0.77 0.48 0.21 0.19 0.21 0.17 0.15 0.14 0.18 0.22 0.22 0.28 0.28 0.24 0.29 0.37 0.44 0.60 0.75 0.84 0.94 1.06 1.07 1.08 1.02 1.04 1.05 1.02 0.96 0.97 0.94 0.88 0.79 0.76 0.78 0.80 0.81 0.86 0.80 0.79 0.79 0.69
0.03 0.02 0.02 0.02 0.05 0.18 0.43 0.68 0.68 0.38 0.29 0.25 0.21 0.18 0.15 0.20 0.29 0.28 0.26 0.32 0.28 0.27 0.33 0.37 0.47 0.59 0.69 0.80 0.88 0.87 1.00 1.00 1.10 1.08 0.99 0.91 0.85 0.84 0.88 0.85 0.78 0.79 0.83 0.88 0.90 0.90 0.95 0.99 0.90
0.04 0.03 0.03 0.03 0.04 0.09 0.29 0.44 0.45 0.35 0.31 0.24 0.20 0.20 0.21 0.19 0.28 0.31 0.30 0.28 0.25 0.24 0.26 0.28 0.40 0.51 0.60 0.72 0.78 0.85 0.89 0.93 1.00 1.05 1.03 0.97 0.91 0.86 0.86 0.86 0.82 0.78 0.81 0.86 0.89 0.88 0.99 1.12 1.17
0.05 0.06 0.06 0.05 0.05 0.06 0.12 0.20 0.21 0.24 0.29 0.26 0.25 0.28 0.25 0.18 0.18 0.22 0.24 0.21 0.19 0.21 0.22 0.23 0.29 0.36 0.45 0.63 0.77 0.81 0.89 0.94 0.94 0.96 1.10 1.10 1.05 1.01 1.00 0.98 0.97 0.90 0.84 0.87 0.85 0.79 0.85 1.01 1.21